STARLINK-35271, 65812

Orbit data source: Space-Track

STARLINK-35271, 65812 is a payload satellite owned by SpaceX/Seattle (US) in SSO that was launched on Fri, 26 Sep 2025 UTC via an FALCON 9 launch vehicle from the Air Force Western Test Range (AFWTR). Payload-class satellites include a variety of spacecraft equipped with specific instruments for various scientific and technological missions. These include communications satellites like Starlink; space stations such as the ISS; scientific satellites like the Hubble; Earth observation satellites from companies like Planet Labs, Umbra, and HawkEye 360; GPS; miniature CubeSats for education and research; and military/defense satellites.

Loading next visibility...
Identifier
65812, 2025-218X
Orbit
SSO
Country
Flag of USUS
Related business
Manufacturer
SpaceX/Seattle
Mission
Operational Commercial Communications
Bus & Motor
STARLINK V2MO, Unknown motor
Mass
575 kg wet, ~530 kg dry
Launch date (UTC)
2025-09-26 (2 months ago)
Launch vehicle
FALCON 9
Launch site
Air Force Western Test Range (AFWTR)
Object type
Payload
Rocket body
Debris
Shape & HBR
Box + 2 Pan, 17.7 m
Radar Cross Section
36.964 m²

Expand to show TLE details & history
Last TLE update: 15 hours ago

TLE from 15 hours ago
0 STARLINK-35271
1 65812U 25218X   25340.58092014  .00013567  00000-0  94266-3 0  9995
2 65812  97.6012 201.2391 0001387  94.2131 265.9255 15.05649321 10962
Epoch: 2025-12-06T13:56Z
TLE epoch observation values (Epoch: 2025-12-06T13:56:31.500Z)
Latitude
0.00007°
Longitude
-83.49877°
Altitude
552.647 km
Speed
7.585 km/s
True Right ascension
13h 24m 57s
True Declination
0° 00' 00"
Sunlit
Object was in daylight at epoch
Visualization orbit readout
Latitude
Unknown
Longitude
Unknown
Altitude
Unknown
Speed
Unknown
Apparent Right ascension
Unknown
Apparent Declination
Unknown
Sunlit
N/A
Visualization observer readout
Local Sidereal Time
03:22:56
Azimuth
Unknown
Elevation
Unknown
Doppler factor
Unknown
Orbital elements
Apogee altitude
547.467 km
Perigee altitude
545.546 km
Semi-major axis
6,924.644 km
Eccentricity
0.00014
Inclination
97.6012°
RAAN
201.2391°
Arg. of periapsis
94.2131°
True anomaly
265.90965°
Mean anomaly
265.9255°
Eccentric anomaly
265.91757°
Mean motion
3.76658 °/min
Orbital period
95.58 mins
BSTAR
0.00094266
Loading maneuver chart data...
Computing Atmospheric mass density...
Loading historical data...
Loading historical data...
Loading historical data...
Loading historical data...
Loading historical data...
Loading historical data...
Loading historical data...

Documentation

Showing up to 5 results
|